Location: Beccas
(43.4309°N, 0.1528°E)
Time: 11:32:49
(UTC+00:00)

Transit 2A Rocket - Visible Passes

Search period start: 28 May 2022 00:00
Search period end: 07 June 2022 00:00
Orbit: 592 x 909 km, 66.7° (Epoch: 27 May)

Date Brightness Start Highest point End Pass type
(mag) Time Alt. Az. Time Alt. Az. Time Alt. Az.
28 May 5.6 20:46:31 10° NNW 20:50:33 33° NE 20:53:29 16° ESE visible
28 May 5.9 22:29:17 10° NW 22:32:55 26° WSW 22:33:22 25° WSW visible
29 May 6.3 20:04:08 10° N 20:07:30 21° NE 20:10:46 10° E visible
29 May 5.0 21:46:05 10° NW 21:50:18 49° WSW 21:51:43 34° SSW visible
30 May 4.4 21:03:09 10° NNW 21:07:34 87° ENE 21:10:07 24° SSE visible
31 May 5.0 20:20:27 10° NNW 20:24:44 47° NE 20:28:33 12° SE visible
31 May 6.5 22:03:56 10° WNW 22:06:49 18° WSW 22:08:27 15° SW visible
01 Jun 5.8 21:20:22 10° NW 21:24:16 33° WSW 21:26:56 17° SSW visible
02 Jun 4.8 20:37:17 10° NW 20:41:36 63° WSW 20:45:27 12° SSE visible
03 Jun 7.0 21:39:10 10° W 21:40:40 12° WSW 21:42:11 10° SW visible
04 Jun 6.5 20:54:49 10° WNW 20:58:11 22° WSW 21:01:31 10° SSW visible
05 Jun 5.5 20:11:29 10° NW 20:15:35 42° WSW 20:19:37 10° S visible
